Hourly Data Report for October 01, 2017

All times are specified in Local Standard Time (LST). Add 1 hour to adjust for Daylight Saving Time where and when it is observed.

CAPE DORSET A
NUNAVUT

64°13'49.000" N
76°31'30.000" W
48.20 m
2400637
71366
YTE

Download Data

Hourly Data (October 2017)
Hourly Data Report for October 1, 2017
Temp Definition
°C
Dew Point Temp Definition
°C
Rel Hum Definition
%
Wind Dir Definition
10's deg

Wind Spd Definition
km/h
Visibility Definition
km
Stn Press Definition
kPa
Hmdx Definition


Wind Chill Definition


Weather Definition


TIME
00:00 Legend Double Dagger -1.9 -4.7 81 34 24 16.1 100.01   -8 LegendNANA
01:00 Legend Double Dagger -1.2 -3.6 84 33 32 16.1 100.13   -8 LegendNANA
02:00 Legend Double Dagger -1.5 -3.4 87 32 24 16.1 100.26   -8 LegendNANA
03:00 Legend Double Dagger -0.7 -2.9 85 33 22 16.1 100.37   -6 LegendNANA
04:00 Legend Double Dagger -0.1 -2.0 87 35 30 16.1 100.48   -7 LegendNANA
05:00 Legend Double Dagger -0.2 -1.8 89 34 28 16.1 100.62   -7 LegendNANA
06:00 Legend Double Dagger -0.7 -2.0 91 34 28 16.1 100.75   -7 LegendNANA
07:00 Legend Double Dagger -0.5 -2.1 89 35 35 16.1 100.81   -8 LegendNANA
08:00 Legend Double Dagger -0.1 -1.5 90 34 22 16.1 100.95   -6 LegendNANA
09:00 Legend Double Dagger 0.1 -1.5 89 30 24 16.1 101.07     LegendNANA
10:00 Legend Double Dagger 0.4 -1.7 86 26 21 16.1 101.18     LegendNANA
11:00 Legend Double Dagger 0.6 -1.8 84 26 9 16.1 101.24     LegendNANA
12:00 Legend Double Dagger 0.7 -1.9 83 27 13 16.1 101.30     LegendNANA
13:00 Legend Double Dagger 0.1 -2.6 82 29 28 16.1 101.38     LegendNANA
14:00 Legend Double Dagger -0.5 -3.2 82 29 26 16.1 101.43   -7 LegendNANA
15:00 Legend Double Dagger -0.8 -3.3 83 29 21 16.1 101.55   -6 LegendNANA
16:00 Legend Double Dagger -1.1 -3.6 83 30 18 16.1 101.58   -6 LegendNANA
17:00 Legend Double Dagger -1.4 -3.8 84 30 26 16.1 101.63   -8 LegendNANA
18:00 Legend Double Dagger -1.9 -3.8 87 27 18 16.1 101.67   -7 Snow
19:00 Legend Double Dagger -1.8 -3.8 86 28 28 16.1 101.69   -9 LegendNANA
20:00 Legend Double Dagger -1.8 -3.5 88 27 30 16.1 101.67   -9 LegendNANA
21:00 Legend Double Dagger -1.9 -3.5 89 27 28 16.1 101.69   -9 LegendNANA
22:00 Legend Double Dagger -2.3 -3.4 92 27 26 16.1 101.72   -9 LegendNANA
23:00 Legend Double Dagger -2.0 -3.0 93 28 37 16.1 101.69   -10 LegendNANA

Notes on Data Quality.

Legend

  • E = Estimated
  • M = Missing
  • NA = Not Available
  • ‡ = Partner data that is not subject to review by the National Climate Archives
Date modified: